Location: Follega
(52.8850°N, 5.7362°E)
Time: 23:14:01
(UTC+00:00)

ERS-1 Rocket - Pass Details

Date: 06 October 2020
Orbit: 753 x 757 km, 98.5° (Epoch: 24 October)

Event Time Altitude Azimuth Distance (km) Brightness Sun altitude
Exits shadow 18:58:10 13° 48° (NE) 2,115 5.0 -18.3°
Maximum altitude 18:58:10 13° 47° (NE) 2,115 5.0 -18.3°
Drops below altitude 10° 19:00:16 10° 23° (NNE) 2,299 5.4 -18.6°
Sets 19:03:54 0° 355° (N) 3,230 6.5 -19.1°
